GW5433 Weather Reports


time (UTC)temp
C
wind
direction
speed
KPH
gust
KPH
rain 1hr
cm
rain 24hr
cm
rain mn
cm
humidity
%
barometer
mb
20260506015503 25 218 1.6 8.0 0.00 0.00 0.00 84 1008.4
20260506015003 25 253 1.6 8.0 0.00 0.00 0.00 84 1008.5
20260506014505 25 153 1.6 6.4 0.00 0.00 0.00 84 1008.2
20260506014004 25 153 0.0 6.4 0.00 0.00 0.00 84 1008.2
20260506013504 25 213 0.0 6.4 0.00 0.00 0.00 84 1008.1
20260506013011 25 215 0.0 6.4 0.00 0.00 0.00 84 1008.1
20260506012504 25 137 0.0 9.7 0.00 0.00 0.00 83 1008.0
20260506012006 25 214 1.6 9.7 0.00 0.00 0.00 83 1008.0
20260506011535 25 152 3.2 9.7 0.00 0.00 0.00 83 1008.0
20260506011010 25 101 0.0 8.0 0.00 0.00 0.00 83 1007.9
20260506010506 25 241 3.2 6.4 0.00 0.00 0.00 83 1007.8
20260506010004 26 255 0.0 6.4 0.00 0.00 0.00 83 1007.7
20260506005504 26 170 1.6 6.4 0.00 0.00 0.00 82 1007.5
20260506005002 26 127 0.0 11.3 0.00 0.00 0.00 82 1007.5
20260506004513 26 209 1.6 11.3 0.00 0.00 0.00 82 1007.5
20260506004003 26 283 3.2 11.3 0.00 0.00 0.00 81 1007.5
20260506003504 26 164 0.0 11.3 0.00 0.00 0.00 81 1007.5
20260506003008 26 240 1.6 11.3 0.00 0.00 0.00 81 1007.5
20260506002503 26 158 0.0 9.7 0.00 0.00 0.00 81 1007.4
20260506002004 26 262 1.6 12.9 0.00 0.00 0.00 81 1007.4
20260506001512 26 275 3.2 12.9 0.00 0.00 0.00 81 1007.4
20260506001004 26 143 1.6 9.7 0.00 0.00 0.00 81 1007.4
20260506000504 26 288 1.6 14.5 0.00 0.00 0.00 80 1007.5
20260506000014 26 244 4.8 14.5 0.00 0.00 0.00 80 1007.3
20260505235507 26 180 3.2 11.3 0.00 0.00 0.00 80 1007.4
20260505235007 26 203 0.0 9.7 0.00 0.00 0.00 80 1007.4
20260505234503 26 175 1.6 12.9 0.00 0.00 0.00 80 1007.4
20260505234007 26 210 3.2 12.9 0.00 0.00 0.00 79 1007.4
20260505233504 26 207 4.8 11.3 0.00 0.00 0.00 79 1007.4
20260505233004 26 194 1.6 11.3 0.00 0.00 0.00 79 1007.3
20260505232508 26 188 3.2 11.3 0.00 0.00 0.00 79 1007.3
20260505232006 26 183 3.2 11.3 0.00 0.00 0.00 78 1007.3
20260505231506 27 165 1.6 8.0 0.00 0.00 0.00 78 1007.4
20260505231004 27 157 1.6 9.7 0.00 0.00 0.00 78 1007.3
20260505230504 27 215 3.2 11.3 0.00 0.00 0.00 78 1007.4
20260505230015 27 72 3.2 11.3 0.00 0.00 0.00 78 1007.4
20260505225507 27 233 3.2 12.9 0.00 0.00 0.00 78 1007.4
20260505225004 27 219 3.2 12.9 0.00 0.00 0.00 78 1007.4
20260505224520 27 335 3.2 11.3 0.00 0.00 0.00 78 1007.5
20260505224007 27 231 3.2 17.7 0.00 0.00 0.00 77 1007.5
20260505223509 27 311 3.2 17.7 0.00 0.00 0.00 77 1007.5
20260505223010 27 158 3.2 11.3 0.00 0.00 0.00 77 1007.4
20260505222503 27 140 1.6 11.3 0.00 0.00 0.00 78 1007.6
20260505222007 27 231 3.2 11.3 0.00 0.00 0.00 77 1007.5
20260505221505 27 128 3.2 11.3 0.00 0.00 0.00 77 1007.6
20260505221004 27 192 1.6 14.5 0.00 0.00 0.00 76 1007.7
20260505220505 28 184 1.6 14.5 0.00 0.00 0.00 76 1007.7
20260505220022 28 148 0.0 12.9 0.00 0.00 0.00 76 1007.7
20260505215509 27 242 4.8 12.9 0.00 0.00 0.00 75 1007.7
20260505215004 27 226 3.2 12.9 0.00 0.00 0.00 76 1007.6
20260505214525 27 143 3.2 12.9 0.00 0.00 0.00 76 1007.8
20260505214005 27 97 1.6 11.3 0.00 0.00 0.00 76 1007.8
20260505213507 28 302 1.6 9.7 0.00 0.00 0.00 76 1008.0
20260505213023 27 131 1.6 9.7 0.00 0.00 0.00 76 1008.0
20260505212508 27 113 1.6 11.3 0.00 0.00 0.00 76 1008.1
20260505212014 27 188 1.6 11.3 0.00 0.00 0.00 76 1008.0
20260505211505 27 236 1.6 11.3 0.00 0.00 0.00 76 1008.2
20260505211002 27 257 3.2 11.3 0.00 0.00 0.00 74 1008.2
20260505210503 28 235 4.8 11.3 0.00 0.00 0.00 74 1008.2
20260505210008 28 174 3.2 11.3 0.00 0.00 0.00 74 1008.4
20260505205507 28 155 3.2 8.0 0.00 0.00 0.00 73 1008.5
20260505205004 28 256 0.0 9.7 0.00 0.00 0.00 74 1008.6
20260505204510 28 195 1.6 9.7 0.00 0.00 0.00 73 1008.6
20260505204007 28 151 1.6 8.0 0.00 0.00 0.00 74 1008.8
20260505203507 28 273 1.6 9.7 0.00 0.00 0.00 74 1008.8
20260505203016 28 245 1.6 9.7 0.00 0.00 0.00 74 1008.8
20260505202508 28 229 1.6 9.7 0.00 0.00 0.00 74 1008.9
20260505202008 28 249 3.2 11.3 0.00 0.00 0.00 74 1009.0
20260505201522 28 191 1.6 11.3 0.00 0.00 0.00 75 1009.0
20260505201010 28 169 3.2 11.3 0.00 0.00 0.00 75 1009.0
20260505200510 28 95 4.8 11.3 0.00 0.00 0.00 75 1009.1
20260505200005 28 210 1.6 8.0 0.00 0.00 0.00 75 1009.1
20260505195504 28 214 0.0 8.0 0.00 0.00 0.00 77 1009.0
20260505195004 27 93 1.6 8.0 0.00 0.00 0.00 77 1009.2
20260505194518 27 285 0.0 8.0 0.00 0.00 0.00 76 1009.2
20260505194014 27 235 1.6 8.0 0.00 0.00 0.00 75 1009.2
20260505193504 28 260 0.0 8.0 0.00 0.00 0.00 75 1009.3
20260505193015 28 157 1.6 8.0 0.00 0.00 0.00 75 1009.4
20260505192508 28 267 1.6 8.0 0.00 0.00 0.00 76 1009.3
20260505192007 28 251 1.6 8.0 0.00 0.00 0.00 75 1009.4
20260505191522 28 155 0.0 9.7 0.00 0.00 0.00 76 1009.4
20260505191007 28 156 3.2 9.7 0.00 0.00 0.00 75 1009.4
20260505190506 28 219 1.6 6.4 0.00 0.00 0.00 77 1009.4
20260505190020 27 237 1.6 9.7 0.00 0.00 0.00 76 1009.5
20260505185509 27 136 1.6 9.7 0.00 0.00 0.00 77 1009.5
20260505185012 27 103 0.0 9.7 0.00 0.00 0.00 78 1009.5
20260505184508 27 231 0.0 9.7 0.00 0.00 0.00 78 1009.5
20260505184004 27 152 1.6 8.0 0.00 0.00 0.00 78 1009.6
20260505183506 27 171 0.0 8.0 0.00 0.00 0.00 78 1009.6
20260505183016 27 231 1.6 8.0 0.00 0.00 0.00 78 1009.6
20260505182504 27 151 0.0 8.0 0.00 0.00 0.00 79 1009.6
20260505182008 27 156 3.2 8.0 0.00 0.00 0.00 78 1009.8
20260505181516 27 143 0.0 12.9 0.00 0.00 0.00 78 1009.8
20260505181010 27 104 4.8 12.9 0.00 0.00 0.00 78 1009.8
20260505180506 27 16 3.2 11.3 0.00 0.00 0.00 77 1009.8
20260505180024 27 226 3.2 8.0 0.00 0.00 0.00 77 1009.9
20260505175508 27 227 0.0 8.0 0.00 0.00 0.00 77 1009.9
20260505175007 27 193 0.0 8.0 0.00 0.00 0.00 79 1009.9
20260505174524 27 186 1.6 9.7 0.00 0.00 0.00 78 1009.9
20260505174008 27 161 1.6 9.7 0.00 0.00 0.00 79 1009.9
20260505173511 26 136 0.0 8.0 0.00 0.00 0.00 80 1009.9
20260505173027 26 105 3.2 8.0 0.00 0.00 0.00 79 1010.0
20260505172507 26 226 0.0 8.0 0.00 0.00 0.00 81 1010.0
20260505172004 26 166 1.6 8.0 0.00 0.00 0.00 81 1010.0
20260505171514 26 161 0.0 11.3 0.00 0.00 0.00 80 1010.0
20260505171008 26 191 3.2 11.3 0.00 0.00 0.00 80 1010.1
20260505170506 26 234 1.6 9.7 0.00 0.00 0.00 80 1010.1
20260505170015 26 263 0.0 16.1 0.00 0.00 0.00 80 1010.1
20260505165505 26 194 1.6 16.1 0.00 0.00 0.00 80 1010.1
20260505165007 26 188 3.2 12.9 0.00 0.00 0.00 79 1010.1
20260505164522 26 247 1.6 9.7 0.00 0.00 0.00 81 1010.0
20260505164011 26 272 0.0 9.7 0.00 0.00 0.00 80 1010.0
20260505163508 26 229 1.6 8.0 0.00 0.00 0.00 81 1009.9
20260505163024 26 252 0.0 8.0 0.00 0.00 0.00 81 1009.9
20260505162507 26 111 0.0 8.0 0.00 0.00 0.00 82 1010.0
20260505162011 26 258 1.6 8.0 0.00 0.00 0.00 82 1009.9
20260505161528 26 186 0.0 8.0 0.00 0.00 0.00 82 1010.0
20260505161004 26 248 1.6 8.0 0.00 0.00 0.00 82 1010.0
20260505160504 25 28 0.0 9.7 0.00 0.00 0.00 82 1010.0
20260505153024 25 94 0.0 8.0 0.00 0.00 0.00 83 1009.8
20260505152513 25 120 1.6 8.0 0.00 0.00 0.00 82 1009.7
20260505152011 25 289 0.0 9.7 0.00 0.00 0.00 82 1009.7
20260505151526 25 274 0.0 9.7 0.00 0.00 0.00 83 1009.7
20260505151013 25 214 3.2 8.0 0.00 0.00 0.00 83 1009.7
20260505150515 25 240 1.6 11.3 0.00 0.00 0.00 83 1009.7
20260505140507 24 185 0.0 4.8 0.00 0.00 0.00 87 1009.7
20260505125008 22 176 0.0 4.8 0.00 0.00 0.00 89 1009.5
20260505124536 22 172 0.0 1.6 0.00 0.00 0.00 90 1009.4
20260505124011 22 172 0.0 4.8 0.00 0.00 0.00 90 1009.4
20260505123508 22 195 1.6 4.8 0.00 0.00 0.00 90 1009.4
20260505123011 22 213 0.0 4.8 0.00 0.00 0.00 90 1009.2
20260505122504 22 134 0.0 4.8 0.00 0.00 0.00 90 1009.1
20260505122005 22 157 0.0 4.8 0.00 0.00 0.00 90 1009.1
20260505121509 22 165 0.0 8.0 0.00 0.00 0.00 90 1008.9
20260505121003 22 151 0.0 8.0 0.00 0.00 0.00 90 1008.8
20260505120502 22 209 1.6 3.2 0.00 0.00 0.00 90 1008.8
20260505120006 22 160 0.0 1.6 0.00 0.00 0.00 90 1008.9
20260505115502 22 259 0.0 1.6 0.00 0.00 0.00 90 1009.2
20260505115002 22 176 0.0 1.6 0.00 0.00 0.00 90 1009.3
20260505114508 22 150 0.0 3.2 0.00 0.00 0.00 90 1009.3
20260505114004 22 243 0.0 4.8 0.00 0.00 0.00 90 1009.1
20260505113503 22 268 0.0 4.8 0.00 0.00 0.00 90 1009.0
20260505113010 22 274 0.0 3.2 0.00 0.00 0.00 90 1009.0
20260505112504 22 219 0.0 3.2 0.00 0.00 0.00 90 1008.9
20260505112005 22 169 0.0 4.8 0.00 0.00 0.00 90 1008.9
20260505111510 22 217 0.0 4.8 0.00 0.00 0.00 90 1008.7
20260505111008 22 195 0.0 1.6 0.00 0.00 0.00 90 1009.0
20260505110505 22 186 0.0 4.8 0.00 0.00 0.00 90 1009.0
20260505102003 22 150 0.0 1.6 0.00 0.00 0.00 89 1008.9
20260505101509 22 226 0.0 4.8 0.00 0.00 0.00 89 1009.0
20260505101004 22 221 0.0 6.4 0.00 0.00 0.00 89 1009.2
20260505100505 21 193 0.0 6.4 0.00 0.00 0.00 89 1009.2
20260505100010 21 210 0.0 3.2 0.00 0.00 0.00 89 1009.2
20260505095505 21 177 0.0 4.8 0.00 0.00 0.00 89 1009.1
20260505095005 21 216 0.0 6.4 0.00 0.00 0.00 89 1009.0
20260505094513 21 221 0.0 6.4 0.00 0.00 0.00 89 1008.9
20260505094006 21 209 0.0 4.8 0.00 0.00 0.00 89 1008.9
20260505093504 21 137 0.0 4.8 0.00 0.00 0.00 89 1009.1
20260505093008 21 158 0.0 4.8 0.00 0.00 0.00 89 1009.2
20260505092504 21 205 0.0 3.2 0.00 0.00 0.00 89 1009.3
20260505092005 21 179 0.0 3.2 0.00 0.00 0.00 89 1009.4
20260505091514 21 155 0.0 3.2 0.00 0.00 0.00 89 1009.4
20260505091004 21 130 0.0 4.8 0.00 0.00 0.00 89 1009.4
20260505090504 21 258 0.0 4.8 0.00 0.00 0.00 88 1009.3
20260505090013 21 200 0.0 4.8 0.00 0.00 0.00 88 1009.3
20260505085509 21 150 0.0 4.8 0.00 0.00 0.00 88 1009.4
20260505085007 21 139 0.0 4.8 0.00 0.00 0.00 88 1009.4
20260505084533 21 150 0.0 4.8 0.00 0.00 0.00 89 1009.4
20260505084005 21 245 0.0 4.8 0.00 0.00 0.00 89 1009.4
20260505083507 21 162 0.0 1.6 0.00 0.00 0.00 89 1009.4
20260505083011 21 231 0.0 8.0 0.00 0.00 0.00 89 1009.3
20260505082506 21 207 0.0 8.0 0.00 0.00 0.00 89 1009.4
20260505082004 21 186 0.0 4.8 0.00 0.00 0.00 89 1009.4
20260505081517 21 183 0.0 4.8 0.00 0.00 0.00 89 1009.5
20260505081004 21 182 0.0 4.8 0.00 0.00 0.00 89 1009.5
20260505080503 21 155 0.0 4.8 0.00 0.00 0.00 89 1009.6
20260505080014 21 203 0.0 3.2 0.00 0.00 0.00 89 1009.6
20260505075505 21 155 0.0 3.2 0.00 0.00 0.00 88 1009.6
20260505075007 21 212 0.0 3.2 0.00 0.00 0.00 88 1009.8
20260505074514 21 174 0.0 4.8 0.00 0.00 0.00 88 1009.8
20260505074005 21 271 0.0 6.4 0.00 0.00 0.00 88 1009.7
20260505073505 21 127 1.6 6.4 0.00 0.00 0.00 88 1009.7
20260505073016 21 193 0.0 4.8 0.00 0.00 0.00 88 1009.8
20260505072506 21 244 0.0 4.8 0.00 0.00 0.00 87 1009.8
20260505072008 21 250 0.0 4.8 0.00 0.00 0.00 87 1009.9
20260505071519 21 189 1.6 4.8 0.00 0.00 0.00 87 1010.0
20260505071007 21 258 0.0 4.8 0.00 0.00 0.00 87 1010.2
20260505070505 21 205 0.0 4.8 0.00 0.00 0.00 87 1010.2
20260505070012 21 271 0.0 3.2 0.00 0.00 0.00 87 1010.2
20260505065504 21 264 0.0 4.8 0.00 0.00 0.00 87 1010.3
20260505065004 21 143 0.0 4.8 0.00 0.00 0.00 87 1010.3
20260505064519 21 165 0.0 1.6 0.00 0.00 0.00 87 1010.5
20260505064009 21 92 0.0 4.8 0.00 0.00 0.00 87 1010.6
20260505063505 21 137 1.6 4.8 0.00 0.00 0.00 86 1010.7
20260505063017 21 269 0.0 3.2 0.00 0.00 0.00 86 1010.7
20260505062508 21 127 0.0 3.2 0.00 0.00 0.00 86 1010.7
20260505062005 21 216 0.0 3.2 0.00 0.00 0.00 86 1010.9
20260505061520 21 94 0.0 3.2 0.00 0.00 0.00 86 1011.0
20260505061007 21 313 0.0 4.8 0.00 0.00 0.00 86 1010.9
20260505060507 21 217 0.0 4.8 0.00 0.00 0.00 85 1010.9
20260505060017 21 174 0.0 4.8 0.00 0.00 0.00 85 1010.9
20260505055509 21 217 0.0 4.8 0.00 0.00 0.00 85 1010.8
20260505055005 21 176 0.0 4.8 0.00 0.00 0.00 85 1010.8
20260505054512 21 166 0.0 4.8 0.00 0.00 0.00 85 1010.9
20260505054011 21 135 1.6 4.8 0.00 0.00 0.00 84 1011.0
20260505053504 21 99 0.0 3.2 0.00 0.00 0.00 84 1011.2
20260505053021 21 251 0.0 3.2 0.00 0.00 0.00 84 1011.3
20260505052510 21 225 0.0 6.4 0.00 0.00 0.00 84 1011.3
20260505052005 21 163 0.0 6.4 0.00 0.00 0.00 84 1011.4
20260505051520 21 185 0.0 6.4 0.00 0.00 0.00 84 1011.2
20260505051006 21 117 0.0 4.8 0.00 0.00 0.00 84 1011.2
20260505050506 21 223 0.0 8.0 0.00 0.00 0.00 83 1011.1
20260505041507 21 203 0.0 3.2 0.00 0.00 0.00 82 1011.7
20260505041002 21 148 0.0 0.0 0.00 0.00 0.00 81 1011.6
20260505040505 21 196 0.0 0.0 0.00 0.00 0.00 81 1011.5
20260505040005 21 176 0.0 1.6 0.00 0.00 0.00 81 1011.5
20260505035506 21 173 0.0 1.6 0.00 0.00 0.00 80 1011.6
20260505035004 21 237 0.0 3.2 0.00 0.00 0.00 80 1011.7
20260505034508 21 146 0.0 3.2 0.00 0.00 0.00 80 1011.8
20260505034008 21 271 0.0 6.4 0.00 0.00 0.00 80 1011.8
20260505033507 21 198 0.0 6.4 0.00 0.00 0.00 79 1011.8
20260505033014 21 163 0.0 6.4 0.00 0.00 0.00 79 1011.9
20260505032504 22 217 0.0 3.2 0.00 0.00 0.00 79 1011.7
20260505032003 22 173 0.0 4.8 0.00 0.00 0.00 78 1011.8
20260505031520 22 157 0.0 4.8 0.00 0.00 0.00 78 1011.9
20260505031004 22 153 0.0 6.4 0.00 0.00 0.00 78 1011.9
20260505030505 22 242 0.0 6.4 0.00 0.00 0.00 77 1011.8
20260505030004 22 158 0.0 9.7 0.00 0.00 0.00 77 1011.9
20260505025506 22 266 3.2 9.7 0.00 0.00 0.00 76 1011.8
20260505025004 22 221 0.0 9.7 0.00 0.00 0.00 76 1011.7
20260505024504 22 241 0.0 9.7 0.00 0.00 0.00 76 1011.7
20260505024004 22 217 3.2 9.7 0.00 0.00 0.00 76 1011.6
20260505023504 22 207 1.6 8.0 0.00 0.00 0.00 76 1011.7
20260505023009 22 219 1.6 6.4 0.00 0.00 0.00 76 1011.6
20260505022503 22 195 1.6 8.0 0.00 0.00 0.00 75 1011.5
20260505022004 22 306 0.0 12.9 0.00 0.00 0.00 75 1011.6
20260505021516 22 227 3.2 12.9 0.00 0.00 0.00 75 1011.5
20260505021003 22 195 1.6 8.0 0.00 0.00 0.00 75 1011.5
20260505020504 22 142 0.0 8.0 0.00 0.00 0.00 75 1011.4
20260505020022 22 171 0.0 8.0 0.00 0.00 0.00 75 1011.4